Date String (YYYY-MM-DD hh:mm:ss) UTC,Instrument flags,Ambient pressure (hPa),Sample flow (lpm),Bypass flow (lpm),Sample temperature (°C),Ambient temperature (°C),ASC tube jacket temperature (°C),LED temperature (°C),Box temperature (°C),Sample RH (%),Span deviation,Mass concentration (μg/m³),Mass concentration (μg/m³),Mass concentration (μg/m³)
DateTimeUTC,F1_M11,P_M11,Q1_M11,Q2_M11,T1_M11,T2_M11,T3_M11,T4_M11,T5_M11,U1_M11,ZSPAN_M11,X0_M11,X2_M11,X1_M11
2022-09-27 22:00:00,,0832.9,5.00,0.00,30.0,28.0,00.0,38.6,31.8,19.5,0000.0,0012.46,0003.90,0003.18
2022-09-27 22:01:00,,0832.9,4.99,0.00,30.0,28.2,00.0,38.6,31.9,19.7,0000.0,0012.38,0003.89,0003.19
2022-09-27 22:02:00,,0833.0,5.00,0.00,30.0,28.4,00.0,38.6,31.9,19.3,0000.0,0012.49,0003.91,0003.19
2022-09-27 22:03:00,,0832.9,5.00,0.00,30.0,28.6,00.0,38.7,32.0,19.3,0000.0,0012.25,0003.95,0003.19
2022-09-27 22:04:00,,0833.0,4.99,0.00,30.0,28.7,00.0,38.7,32.0,19.2,0000.0,0012.11,0003.95,0003.19
2022-09-27 22:05:00,,0833.0,5.00,0.00,30.1,28.9,00.0,38.7,32.0,19.1,0000.0,0011.95,0004.00,0003.20
2022-09-27 22:06:00,,0833.0,5.01,0.00,30.1,29.0,00.0,38.7,32.1,19.1,0000.0,0011.52,0004.00,0003.22
2022-09-27 22:07:00,,0833.1,4.99,0.00,30.1,28.8,00.0,38.7,32.1,18.9,0000.0,0011.11,0003.98,0003.22
2022-09-27 22:08:00,,0833.1,5.00,0.00,30.1,27.5,00.0,38.7,32.0,18.9,0000.0,0011.12,0003.96,0003.20
2022-09-27 22:09:00,,0833.1,4.99,0.00,30.1,26.5,00.0,38.7,31.8,18.8,0000.0,0011.14,0003.93,0003.19
2022-09-27 22:10:00,,0833.1,5.00,0.00,30.0,26.6,00.0,38.6,31.8,18.9,0000.0,0011.38,0003.89,0003.15
2022-09-27 22:11:00,,0833.1,4.99,0.00,29.9,26.9,00.0,38.6,31.6,19.2,0000.0,0011.38,0003.88,0003.14
2022-09-27 22:12:00,,0833.1,5.00,0.00,29.9,27.3,00.0,38.6,31.6,19.0,0000.0,0010.93,0003.86,0003.11
2022-09-27 22:13:00,,0833.0,5.01,0.00,29.9,27.6,00.0,38.6,31.7,19.2,0000.0,0009.63,0003.80,0003.07
2022-09-27 22:14:00,,0833.0,5.01,0.00,29.9,27.8,00.0,38.5,31.7,18.8,0000.0,0009.34,0003.71,0003.04
2022-09-27 22:15:00,,0833.1,4.99,0.00,29.9,28.1,00.0,38.5,31.7,19.2,0000.0,0010.49,0003.68,0003.04
2022-09-27 22:16:00,,0833.1,5.02,0.00,29.9,28.3,00.0,38.5,31.8,19.3,0000.0,0011.59,0003.66,0003.01
2022-09-27 22:17:00,,0833.1,4.98,0.00,29.9,28.5,00.0,38.6,31.9,19.3,0000.0,0011.36,0003.66,0002.97
2022-09-27 22:18:00,,0833.0,4.99,0.00,29.9,28.6,00.0,38.6,31.9,19.3,0000.0,0011.33,0003.63,0002.95
2022-09-27 22:19:00,,0833.0,5.00,0.00,30.0,28.8,00.0,38.6,32.0,19.1,0000.0,0011.29,0003.61,0002.95
2022-09-27 22:20:00,,0833.0,5.00,0.00,30.0,28.9,00.0,38.6,32.0,19.1,0000.0,0011.66,0003.61,0002.94
2022-09-27 22:21:00,,0833.1,5.00,0.00,30.0,29.0,00.0,38.6,32.0,19.0,0000.0,0010.93,0003.57,0002.92
2022-09-27 22:22:00,,0833.1,4.99,0.00,30.1,29.1,00.0,38.7,32.1,18.8,0000.0,0010.75,0003.52,0002.90
2022-09-27 22:23:00,,0833.1,4.99,0.00,30.1,28.9,00.0,38.7,32.1,18.8,0000.0,0010.78,0003.52,0002.90
2022-09-27 22:24:00,,0833.1,5.00,0.00,30.1,27.6,00.0,38.7,32.0,19.0,0000.0,0011.29,0003.55,0002.89
2022-09-27 22:25:00,,0833.1,5.00,0.00,30.1,27.2,00.0,38.6,31.9,19.0,0000.0,0011.32,0003.56,0002.89
2022-09-27 22:26:00,,0833.1,5.00,0.00,30.0,27.3,00.0,38.6,31.9,19.1,0000.0,0010.62,0003.58,0002.90
2022-09-27 22:27:00,,0833.1,5.00,0.00,30.0,27.6,00.0,38.6,31.8,19.5,0000.0,0009.09,0003.56,0002.90
2022-09-27 22:28:00,,0833.2,5.00,0.00,30.0,27.9,00.0,38.6,31.8,19.4,0000.0,0008.41,0003.55,0002.91
2022-09-27 22:29:00,,0833.2,4.98,0.00,30.0,28.1,00.0,38.6,31.9,19.4,0000.0,0009.06,0003.59,0002.94
2022-09-27 22:30:00,,0833.2,5.01,0.00,30.0,28.4,00.0,38.6,31.9,19.2,0000.0,0009.34,0003.61,0002.94
2022-09-27 22:31:00,,0833.2,4.99,0.00,30.0,28.6,00.0,38.6,32.0,19.3,0000.0,0009.78,0003.59,0002.95
2022-09-27 22:32:00,,0833.2,5.00,0.00,30.0,28.7,00.0,38.6,32.0,19.3,0000.0,0010.13,0003.63,0002.95
2022-09-27 22:33:00,,0833.1,4.99,0.00,30.1,28.8,00.0,38.7,32.0,19.4,0000.0,0010.54,0003.66,0002.96
2022-09-27 22:34:00,,0833.2,5.00,0.00,30.1,28.9,00.0,38.7,32.1,19.4,0000.0,0010.54,0003.66,0002.98
2022-09-27 22:35:00,,0833.2,5.01,0.00,30.1,29.1,00.0,38.7,32.1,19.3,0000.0,0010.08,0003.63,0003.00
2022-09-27 22:36:00,,0833.2,5.00,0.00,30.1,29.1,00.0,38.7,32.1,19.2,0000.0,0010.36,0003.65,0003.01
2022-09-27 22:37:00,,0833.2,4.99,0.00,30.2,28.8,00.0,38.7,32.1,19.2,0000.0,0011.58,0003.70,0003.02
2022-09-27 22:38:00,,0833.2,5.00,0.00,30.1,27.3,00.0,38.7,31.9,19.4,0000.0,0012.04,0003.71,0003.03
2022-09-27 22:39:00,,0833.2,5.00,0.00,30.1,26.3,00.0,38.7,31.8,19.5,0000.0,0012.09,0003.73,0003.04
2022-09-27 22:40:00,,0833.2,5.00,0.00,30.0,26.5,00.0,38.6,31.7,19.8,0000.0,0011.88,0003.72,0003.04
2022-09-27 22:41:00,,0833.2,5.00,0.00,29.9,26.8,00.0,38.6,31.7,19.7,0000.0,0011.55,0003.73,0003.03
2022-09-27 22:42:00,,0833.2,4.99,0.00,29.9,27.2,00.0,38.6,31.7,19.5,0000.0,0010.51,0003.71,0003.02
2022-09-27 22:43:00,,0833.2,5.00,0.00,29.9,27.5,00.0,38.6,31.7,19.9,0000.0,0010.60,0003.70,0003.04
2022-09-27 22:44:00,,0833.2,5.01,0.00,29.8,27.8,00.0,38.6,31.7,20.3,0000.0,0010.58,0003.72,0003.02
2022-09-27 22:45:00,,0833.1,5.00,0.00,29.9,28.1,00.0,38.6,31.7,20.5,0000.0,0011.52,0003.77,0003.03
2022-09-27 22:46:00,,0833.1,5.00,0.00,29.9,28.3,00.0,38.6,31.8,20.4,0000.0,0011.90,0003.80,0003.02
2022-09-27 22:47:00,,0833.2,4.99,0.00,29.9,28.5,00.0,38.6,31.8,20.5,0000.0,0011.67,0003.77,0003.03
2022-09-27 22:48:00,,0833.2,5.01,0.00,29.9,28.6,00.0,38.6,31.9,20.3,0000.0,0010.62,0003.73,0003.05
2022-09-27 22:49:00,,0833.1,4.99,0.00,29.9,28.7,00.0,38.6,31.9,20.3,0000.0,0010.67,0003.73,0003.06
2022-09-27 22:50:00,,0833.1,5.00,0.00,30.0,28.8,00.0,38.6,31.9,20.2,0000.0,0011.27,0003.71,0003.06
2022-09-27 22:51:00,,0833.0,5.02,0.00,30.0,28.9,00.0,38.6,32.0,20.4,0000.0,0010.98,0003.71,0003.06
2022-09-27 22:52:00,,0833.0,4.99,0.00,30.0,29.0,00.0,38.6,32.0,20.2,0000.0,0010.99,0003.71,0003.07
2022-09-27 22:53:00,,0833.0,5.00,0.00,30.1,29.0,00.0,38.7,32.0,20.9,0000.0,0011.85,0003.74,0003.09
2022-09-27 22:54:00,,0833.0,5.01,0.00,30.1,29.1,00.0,38.7,32.1,21.1,0000.0,0011.53,0003.73,0003.10
2022-09-27 22:55:00,,0832.9,5.00,0.00,30.1,29.1,00.0,38.7,32.1,21.1,0000.0,0011.50,0003.75,0003.12
2022-09-27 22:56:00,,0832.8,5.01,0.00,30.2,29.1,00.0,38.7,32.1,20.9,0000.0,0011.20,0003.74,0003.13
2022-09-27 22:57:00,,0832.8,5.00,0.00,30.2,29.0,00.0,38.8,32.1,20.9,0000.0,0011.86,0003.77,0003.15
2022-09-27 22:58:00,,0832.9,5.01,0.00,30.2,27.7,00.0,38.7,32.1,20.6,0000.0,0013.44,0003.85,0003.17
2022-09-27 22:59:00,,0832.9,5.01,0.00,30.1,27.1,00.0,38.7,32.0,20.7,0000.0,0013.17,0003.89,0003.18
